User: anonymous   Login
Location: Stamford Observatory
(41.1241°N, 73.5498°W)
Time: 00:25:25
(UTC-04:00)
Language:

IRS-P3 - Orbit

View from above orbital plane
View from above orbital plane
View from above satellite
View from above satellite

Ground track
Ground track

The orbit data is extracted from the following two-line orbital elements,

1 23827U 96017A   17119.90512624 +.00000037 +00000-0 +36145-4 0  9996
2 23827 098.7224 058.1548 0003555 158.0853 202.0478 14.22503808095566
Epoch (UTC): 29 April 2017 21:43:22
Eccentricity: 0.0003555
inclination: 98.7224°
perigee height: 814 km
apogee height: 819 km
right ascension of ascending node: 58.1548°
argument of perigee: 158.0853°
revolutions per day: 14.22503808
mean anomaly at epoch: 202.0478°
orbit number at epoch: 9556

The dashed part of the orbit path shows where the satellite is in the earth's shadow,  

DLR